FW1555 Weather Reports


time (UTC)temp
C
wind
direction
speed
KPH
gust
KPH
rain 1hr
cm
rain 24hr
cm
rain mn
cm
humidity
%
barometer
mb
20260503194557 14 290 4.8 29.0 0.00 0.00 0.00 37 1009.8
20260503193049 13 234 11.3 24.1 0.00 0.00 0.00 36 1009.8
20260503191553 13 0 3.2 20.9 0.00 0.00 0.00 38 1010.0
20260503190048 13 0 3.2 20.9 0.00 0.00 0.00 39 1009.9
20260503184548 13 261 6.4 25.7 0.00 0.00 0.00 39 1010.1
20260503183053 12 285 3.2 16.1 0.00 0.00 0.00 42 1010.3
20260503181547 11 303 3.2 29.0 0.00 0.00 0.00 44 1010.5
20260503180058 12 244 3.2 32.2 0.00 0.00 0.00 45 1010.6
20260503174601 11 266 6.4 24.1 0.00 0.00 0.00 44 1010.7
20260503173107 11 0 4.8 20.9 0.00 0.00 0.00 44 1010.8
20260503171551 11 299 6.4 20.9 0.00 0.00 0.00 46 1010.8
20260503110106 6 0 0.0 1.6 0.00 0.00 0.00 67 1010.8
20260503081544 6 0 0.0 3.2 0.00 0.10 0.00 67 1010.0
20260503071603 6 0 0.0 0.0 0.00 0.10 0.00 67 1010.1
20260503060105 8 0 0.0 1.6 0.00 0.10 0.00 59 1010.3
20260503054556 8 0 0.0 3.2 0.00 0.10 0.00 59 1010.3
20260503053046 8 0 0.0 6.4 0.00 0.10 0.00 58 1010.6
20260503051542 8 0 0.0 4.8 0.00 0.10 0.00 56 1010.6
20260503050049 8 0 0.0 6.4 0.00 0.10 0.00 55 1010.7
20260503044547 9 0 0.0 8.0 0.00 0.10 0.00 55 1010.8
20260503043046 9 0 0.0 4.8 0.00 0.10 0.00 54 1010.9
20260503041549 10 0 0.0 1.6 0.00 0.10 0.00 54 1010.8
20260503040059 10 0 0.0 9.7 0.00 0.10 0.00 53 1011.0
20260503034541 10 0 0.0 6.4 0.00 0.10 0.10 52 1010.9
20260503033041 10 0 0.0 9.7 0.00 0.10 0.10 50 1010.8
20260503031600 10 0 0.0 1.6 0.00 0.10 0.10 47 1010.8
20260503030050 10 0 0.0 4.8 0.00 0.10 0.10 47 1010.6
20260503024542 10 0 0.0 1.6 0.00 0.10 0.10 48 1010.7
20260503023051 10 0 0.0 0.0 0.00 0.10 0.10 48 1010.7
20260503021546 11 0 0.0 0.0 0.00 0.10 0.10 48 1011.0
20260503020049 11 0 0.0 0.0 0.00 0.10 0.10 49 1011.1
20260503014604 11 0 0.0 0.0 0.00 0.10 0.10 48 1011.1
20260503013046 11 0 0.0 1.6 0.00 0.10 0.10 48 1011.0
20260503011554 11 0 0.0 1.6 0.00 0.10 0.10 47 1010.8
20260503010047 11 0 0.0 0.0 0.00 0.10 0.10 47 1010.6
20260503004547 11 0 0.0 1.6 0.00 0.10 0.10 46 1010.4
20260503003059 12 0 0.0 0.0 0.00 0.10 0.10 47 1010.6
20260503001555 12 0 0.0 0.0 0.00 0.10 0.10 46 1010.3
20260503000048 12 0 0.0 1.6 0.00 0.10 0.10 45 1010.3
20260502234551 12 0 0.0 1.6 0.00 0.10 0.10 45 1010.2
20260502233049 12 0 0.0 4.8 0.00 0.10 0.10 44 1010.0
20260502231551 13 0 0.0 9.7 0.00 0.10 0.10 43 1009.9
20260502230044 15 244 1.6 6.4 0.00 0.10 0.10 38 1009.7
20260502224552 15 263 1.6 16.1 0.00 0.10 0.10 40 1009.7
20260502223047 16 0 0.0 3.2 0.00 0.10 0.10 38 1009.6
20260502221543 16 236 0.0 9.7 0.00 0.10 0.10 38 1009.6
20260502220044 16 0 0.0 3.2 0.00 0.10 0.10 41 1009.5
20260502214547 16 0 3.2 17.7 0.00 0.10 0.10 37 1009.4
20260502213047 16 277 6.4 17.7 0.00 0.10 0.10 38 1009.3
20260502211549 15 0 0.0 12.9 0.00 0.10 0.10 41 1009.3
20260502210104 15 0 1.6 16.1 0.00 0.10 0.10 42 1009.3
20260502204554 15 0 1.6 33.8 0.00 0.10 0.10 42 1009.2
20260502203048 15 266 1.6 11.3 0.00 0.10 0.10 41 1009.3
20260502201551 15 246 3.2 14.5 0.00 0.10 0.10 46 1009.5
20260502200052 14 0 0.0 1.6 0.00 0.10 0.10 53 1009.7